This is the latest recevied weather packets stored in our database for station/object CA3VLN-10. If no packets are shown the sender has not sent any weather packets the latest 10 day(s).
| Time | Temp. | Humidity | Pressure | Rain* | Wind** | Luminosity | Snow |
|---|---|---|---|---|---|---|---|
| 1787682537 | 22.78° C | 35% | 1003.1 hPa | - | - | - | - |
| 1787681637 | 22.78° C | 35% | 1003.7 hPa | - | - | - | - |
| 1787680737 | 23.33° C | 35% | 1003.7 hPa | - | - | - | - |
| 1787679836 | 23.33° C | 34% | 1004.2 hPa | - | - | - | - |
| 1787678936 | 23.33° C | 33% | 1004.4 hPa | - | - | - | - |
| 1787678036 | 23.33° C | 32% | 1004.6 hPa | - | - | - | - |
| 1787677136 | 23.33° C | 32% | 1004.2 hPa | - | - | - | - |
| 1787676236 | 23.33° C | 32% | 1004.4 hPa | - | - | - | - |
| 1787675336 | 23.33° C | 32% | 1004.8 hPa | - | - | - | - |
| 1787674436 | 22.78° C | 34% | 1004.7 hPa | - | - | - | - |
| 1787673536 | 22.78° C | 34% | 1005.4 hPa | - | - | - | - |
| 1787672635 | 22.78° C | 35% | 1005.4 hPa | - | - | - | - |
| 1787671735 | 22.78° C | 35% | 1005.9 hPa | - | - | - | - |
| 1787670835 | 22.78° C | 35% | 1005.6 hPa | - | - | - | - |
| 1787669997 | 22.22° C | 36% | 1006.9 hPa | - | - | - | - |
| 1787669935 | 22.22° C | 36% | 1006.9 hPa | - | - | - | - |
| 1787669035 | 22.22° C | 35% | 1007.2 hPa | - | - | - | - |
| 1787668135 | 22.78° C | 35% | 1007.6 hPa | - | - | - | - |
| 1787667235 | 22.78° C | 35% | 1007.8 hPa | - | - | - | - |
| 1787666335 | 22.22° C | 35% | 1008 hPa | - | - | - | - |
| 1787665435 | 21.67° C | 37% | 1008.5 hPa | - | - | - | - |
| 1787664534 | 21.11° C | 37% | 1008.7 hPa | - | - | - | - |
| 1787663634 | 21.11° C | 37% | 1008.2 hPa | - | - | - | - |
| 1787662734 | 20.56° C | 38% | 1008 hPa | - | - | - | - |
| 1787661834 | 20.56° C | 38% | 1007.2 hPa | - | - | - | - |
* Rain since midnight (hover to see other rain measurements)
** Current wind speed in m/s (hover to see current wind gust speed)